NKS1377 KMCO-KFLL

Flight info

Callsign NKS1377
Flight time 0h 40m
Altitude 23000
Route DDANY3 JIPOD CUUDA3
Aircraft A319/M-SDE3FGHIRWY/LB1

Departure

Time 2026-05-04 20:16
Airport Orlando International Airport (KMCO)

Arrival

Time 2026-05-04 20:56
Airport Fort Lauderdale Hollywood International Airport (KFLL)
Time Latitude Longitude Altitude Speed Heading
2026-05-04 19:41 28.43518 -81.31245 95 ft 0 kts 324°
2026-05-04 19:59 28.43512 -81.31241 94 ft 2 kts 324°
2026-05-04 20:00 28.43496 -81.31227 93 ft 3 kts 322°
2026-05-04 20:00 28.43480 -81.31213 93 ft 3 kts 324°
2026-05-04 20:00 28.43467 -81.31203 94 ft 3 kts 13°
2026-05-04 20:00 28.43460 -81.31207 93 ft 1 kts 56°
2026-05-04 20:01 28.43452 -81.31222 90 ft 3 kts 56°
2026-05-04 20:01 28.43446 -81.31231 95 ft 0 kts 56°
2026-05-04 20:05 28.43453 -81.31220 88 ft 3 kts 56°
2026-05-04 20:05 28.43469 -81.31192 100 ft 6 kts 56°
2026-05-04 20:06 28.43504 -81.31155 95 ft 8 kts 28°
2026-05-04 20:06 28.43569 -81.31137 94 ft 11 kts
2026-05-04 20:06 28.43647 -81.31163 95 ft 13 kts 326°
2026-05-04 20:06 28.43727 -81.31224 96 ft 13 kts 326°
2026-05-04 20:07 28.43781 -81.31306 99 ft 13 kts 291°
2026-05-04 20:07 28.43808 -81.31396 102 ft 11 kts 287°
2026-05-04 20:07 28.43831 -81.31483 105 ft 13 kts 283°
2026-05-04 20:07 28.43844 -81.31584 107 ft 13 kts 277°
2026-05-04 20:08 28.43849 -81.31695 105 ft 16 kts 269°
2026-05-04 20:08 28.43844 -81.31818 100 ft 14 kts 253°
2026-05-04 20:08 28.43772 -81.31846 100 ft 12 kts 185°
2026-05-04 20:08 28.43682 -81.31847 100 ft 14 kts 179°
2026-05-04 20:09 28.43573 -81.31845 99 ft 17 kts 179°
2026-05-04 20:09 28.43449 -81.31843 98 ft 19 kts 179°
2026-05-04 20:09 28.43306 -81.31842 99 ft 22 kts 179°
2026-05-04 20:09 28.43155 -81.31840 98 ft 24 kts 179°
2026-05-04 20:10 28.42974 -81.31838 98 ft 26 kts 179°
2026-05-04 20:10 28.42786 -81.31836 99 ft 28 kts 179°
2026-05-04 20:10 28.42589 -81.31834 102 ft 29 kts 180°
2026-05-04 20:10 28.42401 -81.31833 101 ft 21 kts 179°
2026-05-04 20:11 28.42346 -81.31890 101 ft 11 kts 268°
2026-05-04 20:11 28.42339 -81.31974 102 ft 11 kts 247°
2026-05-04 20:11 28.42264 -81.31988 100 ft 15 kts 179°
2026-05-04 20:11 28.42129 -81.31986 98 ft 23 kts 179°
2026-05-04 20:12 28.41938 -81.31983 99 ft 30 kts 180°
2026-05-04 20:12 28.41776 -81.31982 98 ft 19 kts 179°
2026-05-04 20:12 28.41628 -81.31981 98 ft 23 kts 180°
2026-05-04 20:12 28.41543 -81.32053 97 ft 15 kts 270°
2026-05-04 20:13 28.41543 -81.32089 97 ft 0 kts 270°
2026-05-04 20:14 28.41543 -81.32115 97 ft 8 kts 270°
2026-05-04 20:15 28.41567 -81.32193 97 ft 14 kts 326°
2026-05-04 20:15 28.41686 -81.32199 98 ft 24 kts 359°
2026-05-04 20:15 28.42013 -81.32202 100 ft 75 kts 359°
2026-05-04 20:15 28.42726 -81.32210 101 ft 128 kts 359°
2026-05-04 20:16 28.43790 -81.32222 102 ft 175 kts 359°
2026-05-04 20:16 28.45062 -81.32244 580 ft 184 kts
2026-05-04 20:16 28.46258 -81.31846 1234 ft 182 kts 34°
2026-05-04 20:16 28.47117 -81.30810 1843 ft 183 kts 63°
2026-05-04 20:17 28.47674 -81.29454 2341 ft 197 kts 68°
2026-05-04 20:17 28.48239 -81.27919 2689 ft 225 kts 69°
2026-05-04 20:17 28.48837 -81.26155 3248 ft 248 kts 70°
2026-05-04 20:17 28.49454 -81.24284 4021 ft 260 kts 70°
2026-05-04 20:18 28.50105 -81.22350 5063 ft 263 kts 69°
2026-05-04 20:18 28.50639 -81.20300 5854 ft 276 kts 77°
2026-05-04 20:18 28.51037 -81.18141 6748 ft 281 kts 79°
2026-05-04 20:18 28.51130 -81.15916 7538 ft 289 kts 100°
2026-05-04 20:19 28.50646 -81.13645 8413 ft 294 kts 105°
2026-05-04 20:19 28.50128 -81.11385 9318 ft 297 kts 106°
2026-05-04 20:19 28.49597 -81.09134 10171 ft 301 kts 106°
2026-05-04 20:19 28.48875 -81.06867 10848 ft 309 kts 117°
2026-05-04 20:20 28.47739 -81.04739 11353 ft 322 kts 129°
2026-05-04 20:20 28.46186 -81.02791 11655 ft 341 kts 140°
2026-05-04 20:20 28.44299 -81.01084 12157 ft 352 kts 144°
2026-05-04 20:20 28.42348 -80.99340 12821 ft 358 kts 143°
2026-05-04 20:21 28.40393 -80.97561 13567 ft 362 kts 143°
2026-05-04 20:21 28.38448 -80.95772 14238 ft 365 kts 142°
2026-05-04 20:21 28.34438 -80.92088 15471 ft 373 kts 143°
2026-05-04 20:22 28.32424 -80.90247 16096 ft 377 kts 144°
2026-05-04 20:22 28.30375 -80.88362 16705 ft 382 kts 142°
2026-05-04 20:22 28.28518 -80.86161 17286 ft 390 kts 131°
2026-05-04 20:22 28.27037 -80.83534 17869 ft 399 kts 119°
2026-05-04 20:23 28.25945 -80.80612 18424 ft 405 kts 114°
2026-05-04 20:23 28.24890 -80.77627 18936 ft 409 kts 114°
2026-05-04 20:23 28.23829 -80.74649 19441 ft 413 kts 114°
2026-05-04 20:23 28.22743 -80.71619 19962 ft 417 kts 115°
2026-05-04 20:24 28.21636 -80.68556 20499 ft 421 kts 115°
2026-05-04 20:24 28.20521 -80.65444 21022 ft 425 kts 114°
2026-05-04 20:24 28.19461 -80.62357 21511 ft 430 kts 113°
2026-05-04 20:24 28.18405 -80.59159 22017 ft 434 kts 113°
2026-05-04 20:25 28.17361 -80.55930 22514 ft 438 kts 112°
2026-05-04 20:25 28.16313 -80.52675 22931 ft 443 kts 112°
2026-05-04 20:25 28.15229 -80.49336 23041 ft 456 kts 113°
2026-05-04 20:25 28.14102 -80.45912 23062 ft 470 kts 113°
2026-05-04 20:26 28.12949 -80.42440 23061 ft 483 kts 113°
2026-05-04 20:26 28.11525 -80.38961 23076 ft 489 kts 123°
2026-05-04 20:26 28.09601 -80.35779 23074 ft 487 kts 133°
2026-05-04 20:26 28.07263 -80.33035 23075 ft 482 kts 143°
2026-05-04 20:27 28.04579 -80.30768 23064 ft 476 kts 153°
2026-05-04 20:27 28.01702 -80.29069 23041 ft 469 kts 162°
2026-05-04 20:27 27.98650 -80.27818 23066 ft 465 kts 166°
2026-05-04 20:27 27.95582 -80.26625 23069 ft 464 kts 166°
2026-05-04 20:28 27.92523 -80.25433 23072 ft 464 kts 166°
2026-05-04 20:28 27.89471 -80.24243 23070 ft 464 kts 166°
2026-05-04 20:28 27.86445 -80.23065 23071 ft 464 kts 166°
2026-05-04 20:28 27.83393 -80.21876 23073 ft 464 kts 166°
2026-05-04 20:29 27.80332 -80.20680 23069 ft 464 kts 166°
2026-05-04 20:29 27.77276 -80.19486 23074 ft 464 kts 166°
2026-05-04 20:29 27.74256 -80.18306 23067 ft 464 kts 166°
2026-05-04 20:29 27.71205 -80.17112 23052 ft 464 kts 166°
2026-05-04 20:30 27.68148 -80.15917 23046 ft 463 kts 166°
2026-05-04 20:30 27.65099 -80.14730 23051 ft 463 kts 166°
2026-05-04 20:30 27.62046 -80.13547 23054 ft 463 kts 167°
2026-05-04 20:30 27.59040 -80.12362 23056 ft 463 kts 166°
2026-05-04 20:31 27.56003 -80.11125 23053 ft 463 kts 165°
2026-05-04 20:31 27.52980 -80.09868 23053 ft 463 kts 165°
2026-05-04 20:31 27.49958 -80.08599 23050 ft 463 kts 165°
2026-05-04 20:31 27.46939 -80.07334 23035 ft 463 kts 165°
2026-05-04 20:32 27.43902 -80.06072 23038 ft 462 kts 165°
2026-05-04 20:32 27.40903 -80.04840 23044 ft 462 kts 166°
2026-05-04 20:32 27.37877 -80.03621 23043 ft 461 kts 167°
2026-05-04 20:32 27.34816 -80.02529 23038 ft 459 kts 169°
2026-05-04 20:33 27.31727 -80.01565 23026 ft 458 kts 171°
2026-05-04 20:33 27.28675 -80.00689 23030 ft 457 kts 172°
2026-05-04 20:33 27.25578 -79.99823 23027 ft 457 kts 171°
2026-05-04 20:33 27.22496 -79.98880 23038 ft 459 kts 169°
2026-05-04 20:34 27.19432 -79.97832 23030 ft 460 kts 168°
2026-05-04 20:34 27.16441 -79.96733 22916 ft 452 kts 167°
2026-05-04 20:34 27.13513 -79.95613 22647 ft 437 kts 167°
2026-05-04 20:34 27.10678 -79.94528 22362 ft 423 kts 167°
2026-05-04 20:35 27.08842 -79.93835 22192 ft 414 kts 168°
2026-05-04 20:35 27.05266 -79.92497 21855 ft 401 kts 167°
2026-05-04 20:35 27.03492 -79.91807 21685 ft 398 kts 167°
2026-05-04 20:35 27.00919 -79.90778 21437 ft 396 kts 167°
2026-05-04 20:36 26.98335 -79.89725 21188 ft 395 kts 166°
2026-05-04 20:36 26.95758 -79.88668 20943 ft 393 kts 166°
2026-05-04 20:36 26.93178 -79.87613 20698 ft 392 kts 166°
2026-05-04 20:36 26.90637 -79.86577 20435 ft 383 kts 167°
2026-05-04 20:37 26.88149 -79.85567 19986 ft 379 kts 167°
2026-05-04 20:37 26.85699 -79.84582 19489 ft 377 kts 167°
2026-05-04 20:37 26.83227 -79.83592 18998 ft 375 kts 167°
2026-05-04 20:37 26.80765 -79.82607 18514 ft 374 kts 167°
2026-05-04 20:38 26.78370 -79.81644 18221 ft 365 kts 167°
2026-05-04 20:38 26.75999 -79.80688 17823 ft 360 kts 167°
2026-05-04 20:38 26.73646 -79.79746 17376 ft 355 kts 168°
2026-05-04 20:38 26.71278 -79.79143 16875 ft 345 kts 180°
2026-05-04 20:39 26.68904 -79.79140 16376 ft 335 kts 193°
2026-05-04 20:39 26.66672 -79.79667 15989 ft 323 kts 204°
2026-05-04 20:39 26.64602 -79.80503 15553 ft 319 kts 206°
2026-05-04 20:39 26.62514 -79.81354 15117 ft 318 kts 206°
2026-05-04 20:40 26.60432 -79.82199 14689 ft 316 kts 205°
2026-05-04 20:40 26.58367 -79.83038 14285 ft 315 kts 205°
2026-05-04 20:40 26.56335 -79.83868 13903 ft 313 kts 205°
2026-05-04 20:40 26.54296 -79.84720 13546 ft 307 kts 207°
2026-05-04 20:41 26.52339 -79.85607 13287 ft 299 kts 208°
2026-05-04 20:41 26.50435 -79.86510 12897 ft 296 kts 208°
2026-05-04 20:41 26.48575 -79.87408 12534 ft 293 kts 208°
2026-05-04 20:41 26.46702 -79.88312 12142 ft 292 kts 208°
2026-05-04 20:42 26.44838 -79.89205 11761 ft 290 kts 208°
2026-05-04 20:42 26.42984 -79.90084 11380 ft 289 kts 208°
2026-05-04 20:42 26.41130 -79.90957 11002 ft 288 kts 207°
2026-05-04 20:42 26.39306 -79.91811 10643 ft 287 kts 207°
2026-05-04 20:43 26.37519 -79.92781 10182 ft 285 kts 214°
2026-05-04 20:43 26.35795 -79.93897 9736 ft 286 kts 214°
2026-05-04 20:43 26.34065 -79.95013 9281 ft 287 kts 213°
2026-05-04 20:43 26.32336 -79.96124 8858 ft 286 kts 213°
2026-05-04 20:44 26.30630 -79.97218 8446 ft 286 kts 212°
2026-05-04 20:44 26.28894 -79.98329 8073 ft 285 kts 213°
2026-05-04 20:44 26.27174 -79.99432 8012 ft 287 kts 213°
2026-05-04 20:44 26.25430 -80.00553 8020 ft 291 kts 212°
2026-05-04 20:45 26.23667 -80.01686 8019 ft 294 kts 212°
2026-05-04 20:45 26.21897 -80.02821 8022 ft 293 kts 213°
2026-05-04 20:45 26.20162 -80.03956 8015 ft 292 kts 217°
2026-05-04 20:45 26.18643 -80.05426 8021 ft 289 kts 231°
2026-05-04 20:46 26.17522 -80.07274 8017 ft 287 kts 246°
2026-05-04 20:46 26.16829 -80.09332 8007 ft 284 kts 253°
2026-05-04 20:46 26.16208 -80.11423 8011 ft 285 kts 253°
2026-05-04 20:46 26.15574 -80.13521 8014 ft 286 kts 252°
2026-05-04 20:47 26.15089 -80.15652 8012 ft 281 kts 263°
2026-05-04 20:47 26.15025 -80.17753 7917 ft 270 kts 270°
2026-05-04 20:47 26.15038 -80.19827 7770 ft 266 kts 270°
2026-05-04 20:47 26.15049 -80.21895 7563 ft 267 kts 270°
2026-05-04 20:48 26.15059 -80.23949 7299 ft 264 kts 270°
2026-05-04 20:48 26.15069 -80.25998 6973 ft 266 kts 270°
2026-05-04 20:48 26.15093 -80.28049 6622 ft 264 kts 270°
2026-05-04 20:48 26.15110 -80.30095 6254 ft 264 kts 270°
2026-05-04 20:49 26.15110 -80.32135 5881 ft 264 kts 270°
2026-05-04 20:49 26.15093 -80.34195 5509 ft 265 kts 270°
2026-05-04 20:49 26.15062 -80.36251 5142 ft 266 kts 270°
2026-05-04 20:49 26.15021 -80.38317 4777 ft 266 kts 269°
2026-05-04 20:50 26.14846 -80.40326 4402 ft 264 kts 255°
2026-05-04 20:50 26.13917 -80.42067 4070 ft 264 kts 223°
2026-05-04 20:50 26.12375 -80.43027 4006 ft 248 kts 191°
2026-05-04 20:50 26.10720 -80.43069 4004 ft 230 kts 163°
2026-05-04 20:51 26.09314 -80.42374 4020 ft 219 kts 139°
2026-05-04 20:51 26.08309 -80.41148 4012 ft 212 kts 114°
2026-05-04 20:51 26.07827 -80.39615 3914 ft 210 kts 94°
2026-05-04 20:51 26.07791 -80.38015 3688 ft 204 kts 86°
2026-05-04 20:52 26.07788 -80.36473 3435 ft 200 kts 86°
2026-05-04 20:52 26.07783 -80.34924 3189 ft 196 kts 86°
2026-05-04 20:52 26.07777 -80.33443 2937 ft 192 kts 86°
2026-05-04 20:52 26.07770 -80.31950 2688 ft 189 kts 86°
2026-05-04 20:53 26.07763 -80.30504 2442 ft 185 kts 86°
2026-05-04 20:53 26.07756 -80.29142 2215 ft 173 kts 86°
2026-05-04 20:53 26.07750 -80.27854 1987 ft 162 kts 86°
2026-05-04 20:53 26.07743 -80.26652 1793 ft 146 kts 86°
2026-05-04 20:54 26.07737 -80.25584 1596 ft 133 kts 86°
2026-05-04 20:54 26.07733 -80.24565 1439 ft 128 kts 84°
2026-05-04 20:54 26.07728 -80.23585 1268 ft 125 kts 85°
2026-05-04 20:54 26.07724 -80.22616 1103 ft 124 kts 84°
2026-05-04 20:55 26.07723 -80.21636 917 ft 126 kts 86°
2026-05-04 20:55 26.07719 -80.20664 766 ft 125 kts 85°
2026-05-04 20:55 26.07715 -80.19698 538 ft 125 kts 89°
2026-05-04 20:55 26.07707 -80.18734 292 ft 124 kts 87°
2026-05-04 20:56 26.07700 -80.17773 221 ft 124 kts 84°
2026-05-04 20:56 26.07699 -80.16812 108 ft 123 kts 86°
2026-05-04 20:56 26.07694 -80.15889 21 ft 107 kts 89°
2026-05-04 20:56 26.07686 -80.15333 16 ft 32 kts 90°
2026-05-04 20:57 26.07686 -80.15070 16 ft 36 kts 90°
2026-05-04 20:57 26.07676 -80.14785 19 ft 37 kts 97°
2026-05-04 20:57 26.07609 -80.14554 19 ft 17 kts 121°
2026-05-04 20:57 26.07592 -80.14531 18 ft 0 kts 135°
2026-05-04 20:58 26.07570 -80.14528 17 ft 8 kts 193°
2026-05-04 20:58 26.07560 -80.14589 17 ft 9 kts 270°
2026-05-04 20:58 26.07560 -80.14657 17 ft 9 kts 269°
2026-05-04 20:59 26.07559 -80.14729 17 ft 9 kts 269°
2026-05-04 20:59 26.07558 -80.14799 17 ft 9 kts 267°
2026-05-04 20:59 26.07528 -80.14853 16 ft 9 kts 223°
2026-05-04 20:59 26.07482 -80.14902 16 ft 9 kts 225°
2026-05-04 21:00 26.07438 -80.14951 16 ft 9 kts 224°
2026-05-04 21:00 26.07386 -80.15008 16 ft 12 kts 225°
2026-05-04 21:00 26.07329 -80.15074 16 ft 12 kts 226°
2026-05-04 21:00 26.07268 -80.15128 16 ft 11 kts 194°
2026-05-04 21:01 26.07200 -80.15115 16 ft 9 kts 139°
2026-05-04 21:01 26.07154 -80.15062 16 ft 10 kts 134°
2026-05-04 21:01 26.07106 -80.15009 25 ft 10 kts 135°
2026-05-04 21:01 26.07055 -80.14954 17 ft 10 kts 135°
2026-05-04 21:02 26.07002 -80.14895 16 ft 11 kts 135°
2026-05-04 21:02 26.06947 -80.14834 17 ft 12 kts 134°
2026-05-04 21:02 26.06888 -80.14770 16 ft 12 kts 136°
2026-05-04 21:02 26.06827 -80.14704 18 ft 12 kts 135°
2026-05-04 21:03 26.06768 -80.14631 17 ft 13 kts 111°
2026-05-04 21:03 26.06811 -80.14560 16 ft 12 kts 57°
2026-05-04 21:03 26.06850 -80.14516 16 ft 7 kts
2026-05-04 21:03 26.06878 -80.14516 16 ft 0 kts
2026-05-04 21:04 26.06886 -80.14516 16 ft 0 kts 359°